When you browse on this site, cookies collect data to enhance your experience and personalize the content and advertising you see.
Visit our Privacy Policy to learn more. By continuing to use the site, you agree to this use of cookies and data.
  • En España
  • Lista de países
  • Para 7 días
  • Temperatura del agua
  • El tiempo en el mapa
  • Informadores
  • user-avatar
    Iniciar sesión

    Tiempo cada hora Safaga

    Hoy, 21 Octubre, Lunes

    Tiempo Temperatura Precipitaciones Viento Presión Humedad
    00:00 +24°C° 0 mm 3 mps 705 mmHg 34%
    01:00 +24°C° 0 mm 2 mps 704 mmHg 35%
    02:00 +23°C° 0 mm 2 mps 704 mmHg 35%
    03:00 +23°C° 0 mm 2 mps 704 mmHg 36%
    04:00 +21°C° 0 mm 2 mps 704 mmHg 36%
    05:00 +21°C° 0 mm 2 mps 704 mmHg 37%
    06:00 +24°C° 0 mm 2 mps 704 mmHg 32%
    07:00 +27°C° 0 mm 2 mps 705 mmHg 27%
    08:00 +29°C° 0 mm 2 mps 705 mmHg 23%
    09:00 +31°C° 0 mm 3 mps 705 mmHg 20%
    10:00 +33°C° 0 mm 4 mps 706 mmHg 18%
    11:00 +35°C° 0 mm 5 mps 706 mmHg 16%
    12:00 +36°C° 0 mm 5 mps 705 mmHg 15%
    13:00 +36°C° 0 mm 5 mps 705 mmHg 15%
    14:00 +36°C° 0 mm 5 mps 704 mmHg 14%
    15:00 +34°C° 0 mm 5 mps 704 mmHg 18%
    16:00 +32°C° 0 mm 4 mps 703 mmHg 21%
    17:00 +30°C° 0 mm 3 mps 703 mmHg 24%
    18:00 +28°C° 0 mm 3 mps 703 mmHg 27%
    19:00 +26°C° 0 mm 2 mps 702 mmHg 31%
    20:00 +24°C° 0 mm 2 mps 702 mmHg 34%
    21:00 +24°C° 0 mm 1 mps 702 mmHg 34%
    22:00 +23°C° 0 mm 1 mps 702 mmHg 35%
    23:00 +23°C° 0 mm 1 mps 702 mmHg 36%

    Mañana, 22 Octubre, Martes

    Tiempo Temperatura Precipitaciones Viento Presión Humedad
    00:00 +22°C° 0 mm 1 mps 702 mmHg 37%
    01:00 +20°C° 0 mm 0 mps 701 mmHg 38%
    02:00 +19°C° 0 mm 0 mps 701 mmHg 39%
    03:00 +19°C° 0 mm 0 mps 701 mmHg 39%
    04:00 +19°C° 0 mm 0 mps 701 mmHg 40%
    05:00 +18°C° 0 mm 0 mps 701 mmHg 41%
    06:00 +21°C° 0 mm 0 mps 701 mmHg 35%
    07:00 +24°C° 0 mm 0 mps 702 mmHg 30%
    08:00 +27°C° 0 mm 0 mps 703 mmHg 24%
    09:00 +30°C° 0 mm 1 mps 703 mmHg 22%
    10:00 +32°C° 0 mm 2 mps 703 mmHg 19%
    11:00 +34°C° 0 mm 2 mps 703 mmHg 17%
    12:00 +35°C° 0 mm 3 mps 703 mmHg 17%
    13:00 +35°C° 0 mm 4 mps 702 mmHg 18%
    14:00 +35°C° 0 mm 5 mps 702 mmHg 18%
    15:00 +33°C° 0 mm 4 mps 702 mmHg 21%
    16:00 +31°C° 0 mm 3 mps 701 mmHg 23%
    17:00 +29°C° 0 mm 1 mps 701 mmHg 26%
    18:00 +27°C° 0 mm 1 mps 701 mmHg 30%
    19:00 +26°C° 0 mm 1 mps 701 mmHg 35%
    20:00 +22°C° 0 mm 0 mps 701 mmHg 39%
    21:00 +24°C° 0 mm 1 mps 701 mmHg 40%
    22:00 +23°C° 0 mm 1 mps 701 mmHg 40%
    23:00 +23°C° 0 mm 2 mps 701 mmHg 41%

    Pasado mañana, 23 Octubre, Miércoles

    Tiempo Temperatura Precipitaciones Viento Presión Humedad
    00:00 +23°C° 0 mm 2 mps 701 mmHg 41%
    01:00 +23°C° 0 mm 2 mps 701 mmHg 42%
    02:00 +23°C° 0 mm 2 mps 701 mmHg 43%
    03:00 +21°C° 0 mm 2 mps 701 mmHg 45%
    04:00 +20°C° 0 mm 2 mps 701 mmHg 48%
    05:00 +20°C° 0 mm 2 mps 701 mmHg 51%
    06:00 +23°C° 0 mm 2 mps 702 mmHg 45%
    07:00 +24°C° 0 mm 2 mps 702 mmHg 40%
    08:00 +26°C° 0 mm 2 mps 703 mmHg 35%
    09:00 +28°C° 0 mm 3 mps 703 mmHg 31%
    10:00 +29°C° 0 mm 4 mps 703 mmHg 27%
    11:00 +32°C° 0 mm 5 mps 703 mmHg 23%
    12:00 +33°C° 0 mm 6 mps 703 mmHg 21%
    13:00 +33°C° 0 mm 6 mps 703 mmHg 20%
    14:00 +34°C° 0 mm 7 mps 702 mmHg 18%
    15:00 +32°C° 0 mm 5 mps 702 mmHg 20%
    16:00 +29°C° 0 mm 4 mps 702 mmHg 22%
    17:00 +28°C° 0 mm 3 mps 702 mmHg 24%
    18:00 +26°C° 0 mm 3 mps 702 mmHg 31%
    19:00 +24°C° 0 mm 2 mps 702 mmHg 38%
    20:00 +21°C° 0 mm 2 mps 702 mmHg 46%
    21:00 +20°C° 0 mm 2 mps 702 mmHg 48%
    22:00 +20°C° 0 mm 2 mps 702 mmHg 49%
    23:00 +19°C° 0 mm 2 mps 702 mmHg 51%

    24 Octubre, Jueves

    Tiempo Temperatura Precipitaciones Viento Presión Humedad
    00:00 +20°C° 0 mm 1 mps 702 mmHg 53%
    01:00 +19°C° 0 mm 1 mps 701 mmHg 54%
    02:00 +19°C° 0 mm 1 mps 701 mmHg 56%
    03:00 +18°C° 0 mm 1 mps 701 mmHg 58%
    04:00 +18°C° 0 mm 1 mps 701 mmHg 59%
    05:00 +18°C° 0 mm 1 mps 701 mmHg 61%
    06:00 +20°C° 0 mm 1 mps 702 mmHg 54%
    07:00 +22°C° 0 mm 1 mps 703 mmHg 47%
    08:00 +24°C° 0 mm 1 mps 703 mmHg 40%
    09:00 +25°C° 0 mm 2 mps 704 mmHg 34%
    10:00 +27°C° 0 mm 3 mps 704 mmHg 28%
    11:00 +29°C° 0 mm 3 mps 704 mmHg 22%
    12:00 +29°C° 0 mm 4 mps 704 mmHg 20%
    13:00 +29°C° 0 mm 4 mps 703 mmHg 18%
    14:00 +30°C° 0 mm 4 mps 703 mmHg 16%
    15:00 +28°C° 0 mm 4 mps 703 mmHg 20%
    16:00 +27°C° 0 mm 3 mps 702 mmHg 24%
    17:00 +25°C° 0 mm 3 mps 702 mmHg 28%
    18:00 +23°C° 0 mm 2 mps 702 mmHg 35%
    19:00 +20°C° 0 mm 2 mps 702 mmHg 42%
    20:00 +20°C° 0 mm 1 mps 703 mmHg 50%
    21:00 +19°C° 0 mm 1 mps 703 mmHg 50%
    22:00 +19°C° 0 mm 1 mps 703 mmHg 49%
    23:00 +18°C° 0 mm 2 mps 703 mmHg 49%

    25 Octubre, Viernes

    Tiempo Temperatura Precipitaciones Viento Presión Humedad
    00:00 +18°C° 0 mm 1 mps 702 mmHg 50%
    01:00 +18°C° 0 mm 1 mps 702 mmHg 51%
    02:00 +18°C° 0 mm 1 mps 702 mmHg 52%
    03:00 +16°C° 0 mm 1 mps 702 mmHg 54%
    04:00 +16°C° 0 mm 1 mps 702 mmHg 56%
    05:00 +15°C° 0 mm 1 mps 702 mmHg 57%
    06:00 +19°C° 0 mm 1 mps 703 mmHg 51%
    07:00 +21°C° 0 mm 1 mps 703 mmHg 44%
    08:00 +23°C° 0 mm 1 mps 704 mmHg 38%
    09:00 +25°C° 0 mm 2 mps 704 mmHg 34%
    10:00 +26°C° 0 mm 2 mps 704 mmHg 30%
    11:00 +27°C° 0 mm 3 mps 705 mmHg 26%
    12:00 +28°C° 0 mm 3 mps 704 mmHg 26%
    13:00 +29°C° 0 mm 4 mps 704 mmHg 25%
    14:00 +29°C° 0 mm 5 mps 704 mmHg 24%
    15:00 +28°C° 0 mm 4 mps 703 mmHg 29%
    16:00 +26°C° 0 mm 4 mps 703 mmHg 34%
    17:00 +25°C° 0 mm 3 mps 703 mmHg 38%
    18:00 +23°C° 0 mm 2 mps 703 mmHg 46%
    19:00 +20°C° 0 mm 2 mps 703 mmHg 53%
    20:00 +20°C° 0 mm 1 mps 703 mmHg 61%
    21:00 +19°C° 0 mm 1 mps 703 mmHg 62%
    22:00 +18°C° 0 mm 1 mps 703 mmHg 63%
    23:00 +18°C° 0 mm 1 mps 703 mmHg 64%

    26 Octubre, Sábado

    Tiempo Temperatura Precipitaciones Viento Presión Humedad
    00:00 +16°C° 0 mm 1 mps 703 mmHg 63%
    01:00 +16°C° 0 mm 1 mps 702 mmHg 61%
    02:00 +16°C° 0 mm 1 mps 702 mmHg 60%
    03:00 +16°C° 0 mm 1 mps 702 mmHg 61%
    04:00 +15°C° 0 mm 1 mps 702 mmHg 62%
    05:00 +15°C° 0 mm 1 mps 702 mmHg 63%
    06:00 +18°C° 0 mm 1 mps 703 mmHg 55%
    07:00 +21°C° 0 mm 1 mps 704 mmHg 47%
    08:00 +23°C° 0 mm 1 mps 705 mmHg 38%
    09:00 +25°C° 0 mm 1 mps 705 mmHg 33%
    10:00 +26°C° 0 mm 2 mps 705 mmHg 27%
    11:00 +28°C° 0 mm 2 mps 705 mmHg 21%
    12:00 +29°C° 0 mm 3 mps 705 mmHg 21%
    13:00 +29°C° 0 mm 4 mps 704 mmHg 21%
    14:00 +30°C° 0 mm 5 mps 704 mmHg 20%
    15:00 +28°C° 0 mm 4 mps 703 mmHg 27%
    16:00 +26°C° 0 mm 4 mps 703 mmHg 35%
    17:00 +23°C° 0 mm 4 mps 703 mmHg 42%
    18:00 +22°C° 0 mm 3 mps 703 mmHg 49%
    19:00 +20°C° 0 mm 3 mps 703 mmHg 56%
    20:00 +19°C° 0 mm 2 mps 703 mmHg 63%
    21:00 +18°C° 0 mm 2 mps 703 mmHg 62%
    22:00 +19°C° 0 mm 1 mps 703 mmHg 60%
    23:00 +18°C° 0 mm 1 mps 703 mmHg 58%

    27 Octubre, Domingo

    Tiempo Temperatura Precipitaciones Viento Presión Humedad
    00:00 +18°C° 0 mm 1 mps 703 mmHg 57%
    01:00 +16°C° 0 mm 1 mps 702 mmHg 55%
    02:00 +16°C° 0 mm 1 mps 702 mmHg 54%
    03:00 +16°C° 0 mm 1 mps 702 mmHg 54%
    04:00 +15°C° 0 mm 1 mps 702 mmHg 55%
    05:00 +15°C° 0 mm 1 mps 702 mmHg 56%
    06:00 +19°C° 0 mm 1 mps 703 mmHg 47%
    07:00 +22°C° 0 mm 1 mps 703 mmHg 39%
    08:00 +24°C° 0 mm 1 mps 704 mmHg 31%
    09:00 +26°C° 0 mm 1 mps 704 mmHg 27%
    10:00 +27°C° 0 mm 2 mps 705 mmHg 24%
    11:00 +29°C° 0 mm 2 mps 705 mmHg 20%
    12:00 +29°C° 0 mm 3 mps 704 mmHg 20%
    13:00 +30°C° 0 mm 3 mps 704 mmHg 19%
    14:00 +30°C° 0 mm 4 mps 703 mmHg 19%
    15:00 +28°C° 0 mm 3 mps 703 mmHg 24%
    16:00 +26°C° 0 mm 2 mps 703 mmHg 29%
    17:00 +24°C° 0 mm 1 mps 702 mmHg 33%
    18:00 +23°C° 0 mm 1 mps 702 mmHg 43%
    19:00 +21°C° 0 mm 1 mps 702 mmHg 52%
    20:00 +19°C° 0 mm 1 mps 702 mmHg 62%
    21:00 +19°C° 0 mm 1 mps 702 mmHg 64%
    22:00 +18°C° 0 mm 1 mps 702 mmHg 67%
    23:00 +18°C° 0 mm 1 mps 702 mmHg 69%
    Mostrar más